Pleasantville, NJ

9:06 PM EST on February 21, 2017 (GMT -0500)
Atlantic City International

Weather History for KACY - December, 2012

Change the Weather History Date:

Sunday, December 30, 2012

  Actual Average Record
Temperature  
Mean Temperature 35 °F 34 °F  
Max Temperature 40 °F 43 °F 67 °F (1990)
Min Temperature 29 °F 25 °F -7 °F (1880)
Degree Days  
Heating Degree Days 30 31  
Month to date heating degree days 648 831  
Since 1 July heating degree days 1614 1738  
Cooling Degree Days 0 0  
Month to date cooling degree days 0 0  
Year to date cooling degree days 1218 1055  
Moisture  
Dew Point 19 °F    
Average Humidity 55    
Maximum Humidity 72    
Minimum Humidity 37    
Precipitation  
Precipitation 0.00 in 0.11 in 1.40 in (1948)
Month to date precipitation 7.15 3.59  
Year to date precipitation 48.60 41.65  
Snow  
Snow 0.00 in 0.20 in 7.00 in (2000)
Month to date snowfall T 3.6  
Since 1 July snowfall 2.5 3.8  
Snow Depth 0.00 in    
Sea Level Pressure  
Sea Level Pressure 30.00 in    
Wind  
Wind Speed 18 mph (WNW)    
Max Wind Speed 38 mph    
Max Gust Speed 47 mph    
Visibility 10 miles    
Events      
T = Trace of Precipitation, MM = Missing Value Source: NWS Daily Summary

Daily Weather History Graph

Daily Weather History Graph

Search for Another Location

Airport or City:

Trip Planner

Search our weather history database for the weather conditions in past years. The results will help you decide how hot, cold, wet, or windy it might be!

Date:

Astronomy

Dec. 30, 2012 Rise Set
Actual Time 7:18 AM EST 4:44 PM EST
Civil Twilight 6:48 AM EST 5:14 PM EST
Nautical Twilight 6:14 AM EST 5:47 PM EST
Astronomical Twilight 5:41 AM EST 6:20 PM EST
Moon 7:11 PM EST (12/30) 8:26 AM EST (12/30)
Length of Visible Light 10h 26m
Length of Day
9h 25m
Waning Gibbous, 95% of the Moon is Illuminated
Dec 30
Waning Gibbous
Jan 4
Last Quarter
Jan 11
New
Jan 18
First Quarter
Jan 26
Full

Hourly Weather History & Observations

Time (EST) Temp. Windchill Dew Point Humidity Pressure Visibility Wind Dir Wind Speed Gust Speed Precip Events Conditions
12:54 AM 33.1 °F 23.4 °F 24.1 °F 70% 29.71 in 10.0 mi West 13.8 mph - N/A   Overcast
1:54 AM 33.1 °F 23.0 °F 23.0 °F 66% 29.75 in 10.0 mi WNW 15.0 mph - N/A   Overcast
2:54 AM 33.1 °F 22.2 °F 23.0 °F 66% 29.77 in 10.0 mi WNW 17.3 mph 23.0 mph N/A   Overcast
3:54 AM 33.1 °F 21.9 °F 23.0 °F 66% 29.79 in 10.0 mi WNW 18.4 mph 24.2 mph N/A   Overcast
4:54 AM 33.1 °F 21.9 °F 21.0 °F 61% 29.81 in 10.0 mi WNW 18.4 mph 27.6 mph N/A   Partly Cloudy
5:54 AM 32.0 °F 21.2 °F 21.0 °F 64% 29.84 in 10.0 mi WNW 16.1 mph 25.3 mph N/A   Clear
6:54 AM 32.0 °F 18.9 °F 19.0 °F 59% 29.88 in 10.0 mi NW 24.2 mph 29.9 mph N/A   Clear
7:54 AM 32.0 °F 21.2 °F 18.0 °F 56% 29.91 in 10.0 mi WNW 16.1 mph 25.3 mph N/A   Clear
8:54 AM 34.0 °F 21.8 °F 19.0 °F 54% 29.95 in 10.0 mi WNW 23.0 mph 34.5 mph N/A   Clear
9:54 AM 36.0 °F 23.2 °F 18.0 °F 48% 29.98 in 10.0 mi WNW 28.8 mph 36.8 mph N/A   Partly Cloudy
10:54 AM 37.9 °F 26.8 °F 18.0 °F 45% 30.00 in 10.0 mi NW 24.2 mph 33.4 mph N/A   Partly Cloudy
11:54 AM 39.0 °F 28.0 °F 18.0 °F 43% 30.00 in 10.0 mi NW 25.3 mph 41.4 mph N/A   Partly Cloudy
12:54 PM 39.9 °F 29.0 °F 16.0 °F 38% 30.00 in 10.0 mi NW 26.5 mph 42.6 mph N/A   Clear
1:54 PM 37.9 °F 25.3 °F 16.0 °F 41% 30.01 in 10.0 mi NW 32.2 mph 43.7 mph N/A   Clear
2:54 PM 37.9 °F 26.1 °F 17.1 °F 43% 30.04 in 10.0 mi NW 27.6 mph 39.1 mph N/A   Scattered Clouds
3:54 PM 36.0 °F 25.3 °F 19.0 °F 50% 30.09 in 10.0 mi WNW 19.6 mph 33.4 mph N/A   Scattered Clouds
4:54 PM 36.0 °F 26.3 °F 18.0 °F 48% 30.12 in 10.0 mi WNW 16.1 mph 24.2 mph N/A   Scattered Clouds
5:54 PM 36.0 °F 26.0 °F 17.1 °F 46% 30.17 in 10.0 mi WNW 17.3 mph 26.5 mph N/A   Scattered Clouds
6:54 PM 35.1 °F 26.4 °F 17.1 °F 48% 30.20 in 10.0 mi WNW 12.7 mph 23.0 mph N/A   Clear
7:54 PM 34.0 °F 26.0 °F 18.0 °F 52% 30.22 in 10.0 mi West 10.4 mph - N/A   Mostly Cloudy
8:54 PM 33.1 °F 24.4 °F 18.0 °F 54% 30.21 in 10.0 mi WNW 11.5 mph - N/A   Mostly Cloudy
9:54 PM 30.9 °F 23.5 °F 18.0 °F 59% 30.23 in 10.0 mi WNW 8.1 mph - N/A   Clear
10:54 PM 30.0 °F 24.1 °F 18.0 °F 61% 30.26 in 10.0 mi West 5.8 mph - N/A   Clear
11:54 PM 28.9 °F 22.8 °F 19.0 °F 67% 30.27 in 10.0 mi West 5.8 mph - N/A   Clear